Time,TemperatureF,DewpointF,PressureIn,WindDirection,WindDirectionDegrees,WindSpeedMPH,WindSpeedGustMPH,Humidity,HourlyPrecipIn,Conditions,Clouds,dailyrainin,SoftwareType,DateUTC
2013-11-01 00:04:00,38.4,34.9,30.29,SW,229,0.0,0.0,87,0.00,,,0.00,Wunderground v.1.15,2013-11-01 07:04:00,
2013-11-01 00:09:00,38.4,34.9,30.29,WSW,240,0.0,0.0,87,0.00,,,0.00,Wunderground v.1.15,2013-11-01 07:09:00,
2013-11-01 00:15:00,38.4,34.9,30.29,WSW,240,0.0,0.0,87,0.00,,,0.00,Wunderground v.1.15,2013-11-01 07:15:00,
2013-11-01 00:21:00,38.3,34.8,30.29,WSW,241,0.0,0.0,87,0.00,,,0.00,Wunderground v.1.15,2013-11-01 07:21:00,
2013-11-01 00:26:00,38.2,35.0,30.29,SW,226,0.0,0.0,88,0.00,,,0.00,Wunderground v.1.15,2013-11-01 07:26:00,
2013-11-01 00:32:00,38.3,34.8,30.29,SW,219,0.0,0.0,87,0.00,,,0.00,Wunderground v.1.15,2013-11-01 07:32:00,
2013-11-01 00:38:00,38.5,35.0,30.28,SW,224,0.0,0.0,87,0.00,,,0.00,Wunderground v.1.15,2013-11-01 07:38:00,
2013-11-01 00:43:00,38.3,34.8,30.29,SW,226,0.0,0.0,87,0.00,,,0.00,Wunderground v.1.15,2013-11-01 07:43:00,
2013-11-01 00:49:00,37.9,34.4,30.29,SW,229,0.0,0.0,87,0.00,,,0.00,Wunderground v.1.15,2013-11-01 07:49:00,
2013-11-01 00:55:00,37.9,34.7,30.29,SW,223,0.0,0.0,88,0.00,,,0.00,Wunderground v.1.15,2013-11-01 07:55:00,
2013-11-01 01:00:00,38.1,34.9,30.29,SW,231,0.0,0.0,88,0.00,,,0.00,Wunderground v.1.15,2013-11-01 08:00:00,
2013-11-01 01:05:00,38.0,34.5,30.29,WSW,250,0.0,0.0,87,0.00,,,0.00,Wunderground v.1.15,2013-11-01 08:05:00,
2013-11-01 01:11:00,38.0,34.5,30.29,SW,234,0.0,0.0,87,0.00,,,0.00,Wunderground v.1.15,2013-11-01 08:11:00,
2013-11-01 01:17:00,38.1,34.9,30.28,SW,231,0.0,0.0,88,0.00,,,0.00,Wunderground v.1.15,2013-11-01 08:17:00,
2013-11-01 01:22:00,38.5,35.0,30.29,WSW,243,0.0,0.0,87,0.00,,,0.00,Wunderground v.1.15,2013-11-01 08:22:00,
2013-11-01 01:28:00,39.0,35.2,30.28,WSW,245,0.0,0.0,86,0.00,,,0.00,Wunderground v.1.15,2013-11-01 08:28:00,
2013-11-01 01:34:00,39.3,34.9,30.28,WSW,255,0.0,0.0,84,0.00,,,0.00,Wunderground v.1.15,2013-11-01 08:34:00,
2013-11-01 01:40:00,39.5,35.4,30.28,West,259,0.0,0.0,85,0.00,,,0.00,Wunderground v.1.15,2013-11-01 08:40:00,
2013-11-01 01:45:00,39.6,35.5,30.28,West,262,0.0,0.0,85,0.00,,,0.00,Wunderground v.1.15,2013-11-01 08:45:00,
2013-11-01 01:51:00,39.4,35.3,30.28,West,262,0.0,0.0,85,0.00,,,0.00,Wunderground v.1.15,2013-11-01 08:51:00,
2013-11-01 01:57:00,39.1,35.0,30.28,West,262,0.0,0.0,85,0.00,,,0.00,Wunderground v.1.15,2013-11-01 08:57:00,
2013-11-01 02:02:00,38.7,34.9,30.28,West,262,0.0,0.0,86,0.00,,,0.00,Wunderground v.1.15,2013-11-01 09:02:00,
2013-11-01 02:08:00,38.5,35.0,30.28,West,271,0.0,0.0,87,0.00,,,0.00,Wunderground v.1.15,2013-11-01 09:08:00,
2013-11-01 02:14:00,37.9,34.1,30.28,West,276,0.0,0.0,86,0.00,,,0.00,Wunderground v.1.15,2013-11-01 09:14:00,
2013-11-01 02:20:00,37.9,34.4,30.28,West,276,0.0,0.0,87,0.00,,,0.00,Wunderground v.1.15,2013-11-01 09:20:00,
2013-11-01 02:25:00,38.3,34.5,30.28,West,276,0.0,0.0,86,0.00,,,0.00,Wunderground v.1.15,2013-11-01 09:25:00,
2013-11-01 02:31:00,38.5,34.1,30.28,West,268,0.0,0.0,84,0.00,,,0.00,Wunderground v.1.15,2013-11-01 09:31:00,
2013-11-01 02:37:00,38.2,33.8,30.28,West,267,0.0,0.0,84,0.00,,,0.00,Wunderground v.1.15,2013-11-01 09:37:00,
2013-11-01 02:43:00,38.5,33.8,30.28,West,267,0.0,0.0,83,0.00,,,0.00,Wunderground v.1.15,2013-11-01 09:43:00,
2013-11-01 02:48:00,38.8,33.8,30.28,West,267,0.0,0.0,82,0.00,,,0.00,Wunderground v.1.15,2013-11-01 09:48:00,
2013-11-01 02:54:00,38.9,33.9,30.28,West,268,0.0,0.0,82,0.00,,,0.00,Wunderground v.1.15,2013-11-01 09:54:00,
2013-11-01 03:01:00,38.5,33.2,30.28,SW,219,0.0,0.0,81,0.00,,,0.00,Wunderground v.1.15,2013-11-01 10:01:00,
2013-11-01 03:06:00,35.6,30.0,30.28,SSW,205,0.0,0.0,80,0.00,,,0.00,Wunderground v.1.15,2013-11-01 10:06:00,
2013-11-01 03:12:00,34.0,29.7,30.28,SSW,205,0.0,0.0,84,0.00,,,0.00,Wunderground v.1.15,2013-11-01 10:12:00,
2013-11-01 03:17:00,33.3,29.8,30.28,SSW,205,0.0,0.0,87,0.00,,,0.00,Wunderground v.1.15,2013-11-01 10:17:00,
2013-11-01 03:23:00,33.3,30.4,30.28,SSW,205,0.0,0.0,89,0.00,,,0.00,Wunderground v.1.15,2013-11-01 10:23:00,
2013-11-01 03:29:00,33.7,31.4,30.28,SSW,205,0.0,0.0,91,0.00,,,0.00,Wunderground v.1.15,2013-11-01 10:29:00,
2013-11-01 03:35:00,34.2,32.1,30.29,SSW,205,0.0,0.0,92,0.00,,,0.00,Wunderground v.1.15,2013-11-01 10:35:00,
2013-11-01 03:40:00,34.6,32.5,30.29,SSW,203,0.0,0.0,92,0.00,,,0.00,Wunderground v.1.15,2013-11-01 10:40:00,
2013-11-01 03:46:00,35.2,33.1,30.28,SSW,203,0.0,0.0,92,0.00,,,0.00,Wunderground v.1.15,2013-11-01 10:46:00,
2013-11-01 03:52:00,35.7,33.3,30.28,SSW,203,0.0,0.0,91,0.00,,,0.00,Wunderground v.1.15,2013-11-01 10:52:00,
2013-11-01 03:58:00,35.7,33.1,30.28,SSW,203,0.0,0.0,90,0.00,,,0.00,Wunderground v.1.15,2013-11-01 10:58:00,
2013-11-01 04:04:00,35.7,33.1,30.28,SSW,203,0.0,0.0,90,0.00,,,0.00,Wunderground v.1.15,2013-11-01 11:04:00,
2013-11-01 04:10:00,35.9,33.5,30.28,SSW,203,0.0,0.0,91,0.00,,,0.00,Wunderground v.1.15,2013-11-01 11:10:00,
2013-11-01 04:15:00,35.3,32.7,30.28,SSW,203,0.0,0.0,90,0.00,,,0.00,Wunderground v.1.15,2013-11-01 11:15:00,
2013-11-01 04:21:00,35.3,32.7,30.28,SSW,203,0.0,0.0,90,0.00,,,0.00,Wunderground v.1.15,2013-11-01 11:21:00,
2013-11-01 04:26:00,35.3,32.7,30.28,SSW,203,0.0,0.0,90,0.00,,,0.00,Wunderground v.1.15,2013-11-01 11:26:00,
2013-11-01 04:31:00,-999.9,-99.9,30.28,North,32767,-999.0,0.0,255,-99.99,,,0.00,Wunderground v.1.15,2013-11-01 11:31:00,
2013-11-01 04:37:00,-999.9,-99.9,30.28,North,32767,-999.0,0.0,255,-99.99,,,0.00,Wunderground v.1.15,2013-11-01 11:37:00,
2013-11-01 04:44:00,-999.9,-99.9,30.28,North,32767,-999.0,0.0,255,-99.99,,,0.00,Wunderground v.1.15,2013-11-01 11:44:00,
2013-11-01 04:49:00,-999.9,-99.9,30.28,North,32767,-999.0,0.0,255,-99.99,,,0.00,Wunderground v.1.15,2013-11-01 11:49:00,
2013-11-01 04:55:00,-999.9,-99.9,30.28,North,32767,-999.0,0.0,255,-99.99,,,0.00,Wunderground v.1.15,2013-11-01 11:55:00,
2013-11-01 05:00:00,-999.9,-99.9,30.28,North,32767,-999.0,0.0,255,-99.99,,,0.00,Wunderground v.1.15,2013-11-01 12:00:00,
2013-11-01 05:05:00,-999.9,-99.9,30.28,North,32767,-999.0,0.0,255,-99.99,,,0.00,Wunderground v.1.15,2013-11-01 12:05:00,
2013-11-01 05:11:00,-999.9,-99.9,30.28,North,32767,-999.0,0.0,255,-99.99,,,0.00,Wunderground v.1.15,2013-11-01 12:11:00,
2013-11-01 05:17:00,-999.9,-99.9,30.28,North,32767,-999.0,0.0,255,-99.99,,,0.00,Wunderground v.1.15,2013-11-01 12:17:00,
2013-11-01 05:22:00,-999.9,-99.9,30.28,North,32767,-999.0,0.0,255,-99.99,,,0.00,Wunderground v.1.15,2013-11-01 12:22:00,
2013-11-01 05:28:00,-999.9,-99.9,30.29,North,32767,-999.0,0.0,255,-99.99,,,0.00,Wunderground v.1.15,2013-11-01 12:28:00,
2013-11-01 05:34:00,-999.9,-99.9,30.29,North,32767,-999.0,0.0,255,-99.99,,,0.00,Wunderground v.1.15,2013-11-01 12:34:00,
2013-11-01 05:39:00,-999.9,-99.9,30.29,North,32767,-999.0,0.0,255,-99.99,,,0.00,Wunderground v.1.15,2013-11-01 12:39:00,
2013-11-01 05:45:00,-999.9,-99.9,30.29,North,32767,-999.0,0.0,255,-99.99,,,0.00,Wunderground v.1.15,2013-11-01 12:45:00,
2013-11-01 05:51:00,-999.9,-99.9,30.29,North,32767,-999.0,0.0,255,-99.99,,,0.00,Wunderground v.1.15,2013-11-01 12:51:00,
2013-11-01 05:57:00,-999.9,-99.9,30.29,North,32767,-999.0,0.0,255,-99.99,,,0.00,Wunderground v.1.15,2013-11-01 12:57:00,
2013-11-01 06:03:00,-999.9,-99.9,30.29,North,32767,-999.0,0.0,255,-99.99,,,0.00,Wunderground v.1.15,2013-11-01 13:03:00,
2013-11-01 06:08:00,-999.9,-99.9,30.29,North,32767,-999.0,0.0,255,-99.99,,,0.00,Wunderground v.1.15,2013-11-01 13:08:00,
2013-11-01 06:14:00,-999.9,-99.9,30.29,North,32767,-999.0,0.0,255,-99.99,,,0.00,Wunderground v.1.15,2013-11-01 13:14:00,
2013-11-01 06:20:00,-999.9,-99.9,30.29,North,32767,-999.0,0.0,255,-99.99,,,0.00,Wunderground v.1.15,2013-11-01 13:20:00,
2013-11-01 06:25:00,-999.9,-99.9,30.29,North,32767,-999.0,0.0,255,-99.99,,,0.00,Wunderground v.1.15,2013-11-01 13:25:00,
2013-11-01 06:31:00,-999.9,-99.9,30.29,North,32767,-999.0,0.0,255,-99.99,,,0.00,Wunderground v.1.15,2013-11-01 13:31:00,
2013-11-01 06:36:00,-999.9,-99.9,30.29,North,32767,-999.0,0.0,255,-99.99,,,0.00,Wunderground v.1.15,2013-11-01 13:36:00,
2013-11-01 06:42:00,-999.9,-99.9,30.29,North,32767,-999.0,0.0,255,-99.99,,,0.00,Wunderground v.1.15,2013-11-01 13:42:00,
2013-11-01 06:49:00,-999.9,-99.9,30.29,North,32767,-999.0,0.0,255,-99.99,,,0.00,Wunderground v.1.15,2013-11-01 13:49:00,
2013-11-01 06:54:00,-999.9,-99.9,30.29,North,32767,-999.0,0.0,255,-99.99,,,0.00,Wunderground v.1.15,2013-11-01 13:54:00,
2013-11-01 06:59:00,-999.9,-99.9,30.29,North,32767,-999.0,0.0,255,-99.99,,,0.00,Wunderground v.1.15,2013-11-01 13:59:00,
2013-11-01 07:05:00,-999.9,-99.9,30.29,North,32767,-999.0,0.0,255,-99.99,,,0.00,Wunderground v.1.15,2013-11-01 14:05:00,
2013-11-01 07:12:00,-999.9,-99.9,30.29,North,32767,-999.0,0.0,255,-99.99,,,0.00,Wunderground v.1.15,2013-11-01 14:12:00,
2013-11-01 07:18:00,-999.9,-99.9,30.29,North,32767,-999.0,0.0,255,-99.99,,,0.00,Wunderground v.1.15,2013-11-01 14:18:00,
2013-11-01 07:23:00,-999.9,-99.9,30.29,North,32767,-999.0,0.0,255,-99.99,,,0.00,Wunderground v.1.15,2013-11-01 14:23:00,
2013-11-01 07:29:00,-999.9,-99.9,30.29,North,32767,-999.0,0.0,255,-99.99,,,0.00,Wunderground v.1.15,2013-11-01 14:29:00,
2013-11-01 07:34:00,-999.9,-99.9,30.30,North,32767,-999.0,0.0,255,-99.99,,,0.00,Wunderground v.1.15,2013-11-01 14:34:00,
2013-11-01 07:41:00,-999.9,-99.9,30.29,North,32767,-999.0,0.0,255,-99.99,,,0.00,Wunderground v.1.15,2013-11-01 14:41:00,
2013-11-01 07:47:00,-999.9,-99.9,30.30,North,32767,-999.0,0.0,255,-99.99,,,0.00,Wunderground v.1.15,2013-11-01 14:47:00,
2013-11-01 07:52:00,-999.9,-99.9,30.30,North,32767,-999.0,0.0,255,-99.99,,,0.00,Wunderground v.1.15,2013-11-01 14:52:00,
2013-11-01 07:58:00,-999.9,-99.9,30.30,North,32767,-999.0,0.0,255,-99.99,,,0.00,Wunderground v.1.15,2013-11-01 14:58:00,
2013-11-01 08:04:00,34.7,32.1,30.30,WSW,247,0.0,0.0,90,0.00,,,0.00,Wunderground v.1.15,2013-11-01 15:04:00,
2013-11-01 08:09:00,35.0,32.4,30.30,SW,236,0.0,0.0,90,0.00,,,0.00,Wunderground v.1.15,2013-11-01 15:09:00,
2013-11-01 08:15:00,35.5,32.9,30.30,SW,233,0.0,0.0,90,0.00,,,0.00,Wunderground v.1.15,2013-11-01 15:15:00,
2013-11-01 08:22:00,36.0,32.8,30.31,WSW,242,0.0,0.0,88,0.00,,,0.00,Wunderground v.1.15,2013-11-01 15:22:00,
2013-11-01 08:27:00,35.9,32.7,30.31,WSW,243,0.0,0.0,88,0.00,,,0.00,Wunderground v.1.15,2013-11-01 15:27:00,
2013-11-01 08:32:00,36.0,33.1,30.31,WSW,241,0.0,0.0,89,0.00,,,0.00,Wunderground v.1.15,2013-11-01 15:32:00,
2013-11-01 08:38:00,36.5,33.6,30.32,WSW,241,0.0,0.0,89,0.00,,,0.00,Wunderground v.1.15,2013-11-01 15:38:00,
2013-11-01 08:44:00,37.3,34.1,30.32,WSW,244,0.0,0.0,88,0.00,,,0.00,Wunderground v.1.15,2013-11-01 15:44:00,
2013-11-01 08:50:00,37.9,34.7,30.32,WSW,250,0.0,0.0,88,0.00,,,0.00,Wunderground v.1.15,2013-11-01 15:50:00,
2013-11-01 08:55:00,38.4,34.9,30.32,SW,225,0.0,0.0,87,0.00,,,0.00,Wunderground v.1.15,2013-11-01 15:55:00,
2013-11-01 09:00:00,39.2,35.4,30.32,SW,231,0.0,0.0,86,0.00,,,0.00,Wunderground v.1.15,2013-11-01 16:00:00,
2013-11-01 09:05:00,39.7,35.6,30.32,SW,234,0.0,0.0,85,0.00,,,0.00,Wunderground v.1.15,2013-11-01 16:05:00,
2013-11-01 09:11:00,40.2,36.1,30.33,SW,231,0.0,0.0,85,0.00,,,0.00,Wunderground v.1.15,2013-11-01 16:11:00,
2013-11-01 09:17:00,40.8,36.0,30.33,SW,221,0.0,0.0,83,0.00,,,0.00,Wunderground v.1.15,2013-11-01 16:17:00,
2013-11-01 09:23:00,41.4,36.3,30.32,SW,229,0.0,0.0,82,0.00,,,0.00,Wunderground v.1.15,2013-11-01 16:23:00,
2013-11-01 09:28:00,42.0,36.6,30.32,WSW,243,0.0,0.0,81,0.00,,,0.00,Wunderground v.1.15,2013-11-01 16:28:00,
2013-11-01 09:34:00,42.7,36.6,30.32,SW,221,0.0,0.0,79,0.00,,,0.00,Wunderground v.1.15,2013-11-01 16:34:00,
2013-11-01 09:39:00,42.9,36.5,30.32,SW,229,0.0,0.0,78,0.00,,,0.00,Wunderground v.1.15,2013-11-01 16:39:00,
2013-11-01 09:45:00,43.4,36.3,30.32,SW,223,0.0,0.0,76,0.00,,,0.00,Wunderground v.1.15,2013-11-01 16:45:00,
2013-11-01 09:51:00,44.0,36.6,30.32,SW,216,0.0,0.0,75,0.00,,,0.00,Wunderground v.1.15,2013-11-01 16:51:00,
2013-11-01 09:56:00,44.6,36.8,30.31,SSW,210,0.0,0.0,74,0.00,,,0.00,Wunderground v.1.15,2013-11-01 16:56:00,
2013-11-01 10:02:00,45.1,36.6,30.31,SW,222,0.0,0.0,72,0.00,,,0.00,Wunderground v.1.15,2013-11-01 17:02:00,
2013-11-01 10:08:00,45.8,37.3,30.31,SW,220,0.0,0.0,72,0.00,,,0.00,Wunderground v.1.15,2013-11-01 17:08:00,
2013-11-01 10:14:00,46.7,37.4,30.31,SSW,207,0.0,0.0,70,0.00,,,0.00,Wunderground v.1.15,2013-11-01 17:14:00,
2013-11-01 10:19:00,46.8,37.2,30.30,South,173,0.0,0.0,69,0.00,,,0.00,Wunderground v.1.15,2013-11-01 17:19:00,
2013-11-01 10:25:00,47.3,36.5,30.30,WSW,240,0.0,0.0,66,0.00,,,0.00,Wunderground v.1.15,2013-11-01 17:25:00,
2013-11-01 10:31:00,47.7,36.5,30.30,SW,233,0.0,0.0,65,0.00,,,0.00,Wunderground v.1.15,2013-11-01 17:31:00,
2013-11-01 10:36:00,47.8,36.6,30.30,SW,219,0.0,0.0,65,0.00,,,0.00,Wunderground v.1.15,2013-11-01 17:36:00,
2013-11-01 10:41:00,48.2,36.6,30.30,South,169,0.0,0.0,64,0.00,,,0.00,Wunderground v.1.15,2013-11-01 17:41:00,
2013-11-01 10:47:00,48.6,37.0,30.30,SE,134,0.0,0.0,64,0.00,,,0.00,Wunderground v.1.15,2013-11-01 17:47:00,
2013-11-01 10:52:00,48.8,37.2,30.30,SE,145,0.0,0.0,64,0.00,,,0.00,Wunderground v.1.15,2013-11-01 17:52:00,
2013-11-01 10:58:00,49.4,37.3,30.30,SW,221,0.0,0.0,63,0.00,,,0.00,Wunderground v.1.15,2013-11-01 17:58:00,
2013-11-01 11:04:00,49.8,37.7,30.30,ESE,108,0.0,0.0,63,0.00,,,0.00,Wunderground v.1.15,2013-11-01 18:04:00,
2013-11-01 11:10:00,49.5,37.8,30.30,SSE,166,0.0,0.0,64,0.00,,,0.00,Wunderground v.1.15,2013-11-01 18:10:00,
2013-11-01 11:15:00,49.5,37.8,30.30,SE,139,0.0,0.0,64,0.00,,,0.00,Wunderground v.1.15,2013-11-01 18:15:00,
2013-11-01 11:21:00,49.6,37.9,30.29,SE,130,0.0,0.0,64,0.00,,,0.00,Wunderground v.1.15,2013-11-01 18:21:00,
2013-11-01 11:27:00,49.7,37.6,30.29,SE,124,0.0,0.0,63,0.00,,,0.00,Wunderground v.1.15,2013-11-01 18:27:00,
2013-11-01 11:32:00,49.9,37.8,30.29,ESE,117,0.0,0.0,63,0.00,,,0.00,Wunderground v.1.15,2013-11-01 18:32:00,
2013-11-01 11:38:00,50.4,37.9,30.29,SSW,195,0.0,0.0,62,0.00,,,0.00,Wunderground v.1.15,2013-11-01 18:38:00,
2013-11-01 11:44:00,50.4,37.9,30.29,ESE,120,0.0,0.0,62,0.00,,,0.00,Wunderground v.1.15,2013-11-01 18:44:00,
2013-11-01 11:50:00,50.4,37.4,30.28,South,178,0.0,0.0,61,0.00,,,0.00,Wunderground v.1.15,2013-11-01 18:50:00,
2013-11-01 11:55:00,50.9,37.9,30.28,South,171,0.0,0.0,61,0.00,,,0.00,Wunderground v.1.15,2013-11-01 18:55:00,
2013-11-01 12:01:00,51.2,37.8,30.27,SE,135,0.0,0.0,60,0.00,,,0.00,Wunderground v.1.15,2013-11-01 19:01:00,
2013-11-01 12:06:00,51.3,37.9,30.27,NNE,31,0.0,0.0,60,0.00,,,0.00,Wunderground v.1.15,2013-11-01 19:06:00,
2013-11-01 12:11:00,51.3,37.4,30.27,East,87,0.0,0.0,59,0.00,,,0.00,Wunderground v.1.15,2013-11-01 19:11:00,
2013-11-01 12:17:00,51.3,37.9,30.26,ENE,69,0.0,0.0,60,0.00,,,0.00,Wunderground v.1.15,2013-11-01 19:17:00,
2013-11-01 12:23:00,51.7,37.8,30.26,East,91,0.0,0.0,59,0.00,,,0.00,Wunderground v.1.15,2013-11-01 19:23:00,
2013-11-01 12:29:00,51.9,38.0,30.26,East,81,0.0,0.0,59,0.00,,,0.00,Wunderground v.1.15,2013-11-01 19:29:00,
2013-11-01 12:35:00,52.0,37.7,30.25,NE,49,0.0,0.0,58,0.00,,,0.00,Wunderground v.1.15,2013-11-01 19:35:00,
2013-11-01 12:40:00,52.0,37.7,30.25,NNW,336,0.0,0.0,58,0.00,,,0.00,Wunderground v.1.15,2013-11-01 19:40:00,
2013-11-01 12:45:00,52.4,38.0,30.25,ENE,77,0.0,0.0,58,0.00,,,0.00,Wunderground v.1.15,2013-11-01 19:45:00,
2013-11-01 12:51:00,52.7,37.9,30.25,NE,44,0.0,0.0,57,0.00,,,0.00,Wunderground v.1.15,2013-11-01 19:51:00,
2013-11-01 12:57:00,53.1,38.3,30.24,NE,49,0.0,0.0,57,0.00,,,0.00,Wunderground v.1.15,2013-11-01 19:57:00,
2013-11-01 13:03:00,53.4,37.2,30.24,SE,139,0.0,0.0,54,0.00,,,0.00,Wunderground v.1.15,2013-11-01 20:03:00,
2013-11-01 13:09:00,53.7,37.4,30.24,NNW,333,0.0,0.0,54,0.00,,,0.00,Wunderground v.1.15,2013-11-01 20:09:00,
2013-11-01 13:15:00,54.1,37.3,30.23,ESE,113,0.0,0.0,53,0.00,,,0.00,Wunderground v.1.15,2013-11-01 20:15:00,
2013-11-01 13:21:00,54.5,37.2,30.23,SSW,209,0.0,4.0,52,0.00,,,0.00,Wunderground v.1.15,2013-11-01 20:21:00,
2013-11-01 13:26:00,55.0,37.2,30.23,SW,231,1.0,4.0,51,0.00,,,0.00,Wunderground v.1.15,2013-11-01 20:26:00,
2013-11-01 13:32:00,54.9,37.1,30.22,SSE,155,0.0,1.0,51,0.00,,,0.00,Wunderground v.1.15,2013-11-01 20:32:00,
2013-11-01 13:38:00,55.0,37.2,30.22,East,84,0.0,2.0,51,0.00,,,0.00,Wunderground v.1.15,2013-11-01 20:38:00,
2013-11-01 13:44:00,55.2,37.4,30.21,ESE,110,0.0,0.0,51,0.00,,,0.00,Wunderground v.1.15,2013-11-01 20:44:00,
2013-11-01 13:50:00,55.5,37.1,30.21,South,181,0.0,0.0,50,0.00,,,0.00,Wunderground v.1.15,2013-11-01 20:50:00,
2013-11-01 13:55:00,55.5,37.7,30.20,ENE,72,0.0,0.0,51,0.00,,,0.00,Wunderground v.1.15,2013-11-01 20:55:00,
2013-11-01 14:00:00,55.5,37.7,30.20,South,189,0.0,0.0,51,0.00,,,0.00,Wunderground v.1.15,2013-11-01 21:00:00,
2013-11-01 14:06:00,56.0,37.6,30.20,ENE,65,0.0,0.0,50,0.00,,,0.00,Wunderground v.1.15,2013-11-01 21:06:00,
2013-11-01 14:12:00,56.2,37.8,30.19,ESE,109,0.0,0.0,50,0.00,,,0.00,Wunderground v.1.15,2013-11-01 21:12:00,
2013-11-01 14:18:00,56.1,37.7,30.19,NE,40,0.0,0.0,50,0.00,,,0.00,Wunderground v.1.15,2013-11-01 21:18:00,
2013-11-01 14:23:00,56.5,37.6,30.19,NE,49,0.0,0.0,49,0.00,,,0.00,Wunderground v.1.15,2013-11-01 21:23:00,
2013-11-01 14:29:00,56.3,37.4,30.19,East,96,0.0,0.0,49,0.00,,,0.00,Wunderground v.1.15,2013-11-01 21:29:00,
2013-11-01 14:35:00,56.6,37.6,30.18,ENE,70,0.0,0.0,49,0.00,,,0.00,Wunderground v.1.15,2013-11-01 21:35:00,
2013-11-01 14:41:00,56.7,37.7,30.18,ENE,72,0.0,0.0,49,0.00,,,0.00,Wunderground v.1.15,2013-11-01 21:41:00,
2013-11-01 14:47:00,56.8,37.3,30.18,ESE,114,0.0,0.0,48,0.00,,,0.00,Wunderground v.1.15,2013-11-01 21:47:00,
2013-11-01 14:53:00,57.0,37.0,30.18,ENE,70,0.0,0.0,47,0.00,,,0.00,Wunderground v.1.15,2013-11-01 21:53:00,
2013-11-01 14:58:00,57.2,37.7,30.17,ESE,105,0.0,0.0,48,0.00,,,0.00,Wunderground v.1.15,2013-11-01 21:58:00,
2013-11-01 15:04:00,57.2,37.7,30.17,ENE,76,0.0,0.0,48,0.00,,,0.00,Wunderground v.1.15,2013-11-01 22:04:00,
2013-11-01 15:10:00,57.4,37.9,30.17,ESE,108,0.0,0.0,48,0.00,,,0.00,Wunderground v.1.15,2013-11-01 22:10:00,
2013-11-01 15:16:00,57.6,37.5,30.17,East,97,0.0,0.0,47,0.00,,,0.00,Wunderground v.1.15,2013-11-01 22:16:00,
2013-11-01 15:22:00,57.7,37.6,30.16,ENE,68,0.0,0.0,47,0.00,,,0.00,Wunderground v.1.15,2013-11-01 22:22:00,
2013-11-01 15:28:00,57.5,37.4,30.16,East,87,0.0,0.0,47,0.00,,,0.00,Wunderground v.1.15,2013-11-01 22:28:00,
2013-11-01 15:33:00,57.6,37.5,30.16,NE,39,0.0,0.0,47,0.00,,,0.00,Wunderground v.1.15,2013-11-01 22:33:00,
2013-11-01 15:39:00,57.6,37.5,30.16,NE,49,0.0,0.0,47,0.00,,,0.00,Wunderground v.1.15,2013-11-01 22:39:00,
2013-11-01 15:45:00,57.6,37.5,30.16,ENE,63,0.0,0.0,47,0.00,,,0.00,Wunderground v.1.15,2013-11-01 22:45:00,
2013-11-01 15:51:00,57.8,37.7,30.16,ENE,59,0.0,0.0,47,0.00,,,0.00,Wunderground v.1.15,2013-11-01 22:51:00,
2013-11-01 15:56:00,57.9,37.8,30.16,NE,51,0.0,0.0,47,0.00,,,0.00,Wunderground v.1.15,2013-11-01 22:56:00,
2013-11-01 16:02:00,58.0,37.9,30.16,East,101,0.0,0.0,47,0.00,,,0.00,Wunderground v.1.15,2013-11-01 23:02:00,
2013-11-01 16:08:00,57.9,37.2,30.16,NNE,18,0.0,0.0,46,0.00,,,0.00,Wunderground v.1.15,2013-11-01 23:08:00,
2013-11-01 16:14:00,58.2,37.5,30.16,ESE,110,0.0,0.0,46,0.00,,,0.00,Wunderground v.1.15,2013-11-01 23:14:00,
2013-11-01 16:20:00,58.3,37.6,30.16,ENE,75,0.0,0.0,46,0.00,,,0.00,Wunderground v.1.15,2013-11-01 23:20:00,
2013-11-01 16:25:00,58.0,37.3,30.15,NE,42,0.0,0.0,46,0.00,,,0.00,Wunderground v.1.15,2013-11-01 23:25:00,
2013-11-01 16:31:00,58.0,37.3,30.15,NE,37,0.0,0.0,46,0.00,,,0.00,Wunderground v.1.15,2013-11-01 23:31:00,
2013-11-01 16:37:00,58.0,37.3,30.15,East,96,0.0,0.0,46,0.00,,,0.00,Wunderground v.1.15,2013-11-01 23:37:00,
2013-11-01 16:43:00,57.9,37.2,30.15,NE,53,0.0,0.0,46,0.00,,,0.00,Wunderground v.1.15,2013-11-01 23:43:00,
2013-11-01 16:48:00,58.1,37.4,30.15,ENE,65,0.0,0.0,46,0.00,,,0.00,Wunderground v.1.15,2013-11-01 23:48:00,
2013-11-01 16:54:00,58.0,37.3,30.15,East,100,0.0,0.0,46,0.00,,,0.00,Wunderground v.1.15,2013-11-01 23:54:00,
2013-11-01 17:01:00,58.0,37.9,30.14,East,92,0.0,0.0,47,0.00,,,0.00,Wunderground v.1.15,2013-11-02 00:01:00,
2013-11-01 17:06:00,57.9,37.8,30.14,East,84,0.0,0.0,47,0.00,,,0.00,Wunderground v.1.15,2013-11-02 00:06:00,
2013-11-01 17:12:00,57.7,37.6,30.14,ENE,74,0.0,0.0,47,0.00,,,0.00,Wunderground v.1.15,2013-11-02 00:12:00,
2013-11-01 17:17:00,57.6,37.5,30.14,East,83,0.0,0.0,47,0.00,,,0.00,Wunderground v.1.15,2013-11-02 00:17:00,
2013-11-01 17:23:00,57.4,37.9,30.14,ENE,66,0.0,0.0,48,0.00,,,0.00,Wunderground v.1.15,2013-11-02 00:23:00,
2013-11-01 17:29:00,57.1,38.6,30.14,ENE,58,0.0,0.0,50,0.00,,,0.00,Wunderground v.1.15,2013-11-02 00:29:00,
2013-11-01 17:35:00,56.5,39.1,30.14,NE,41,1.0,3.0,52,0.00,,,0.00,Wunderground v.1.15,2013-11-02 00:35:00,
2013-11-01 17:40:00,55.9,39.5,30.14,NE,38,2.0,2.0,54,0.00,,,0.00,Wunderground v.1.15,2013-11-02 00:40:00,
2013-11-01 17:46:00,54.9,39.5,30.14,NNE,32,0.0,5.0,56,0.00,,,0.00,Wunderground v.1.15,2013-11-02 00:46:00,
2013-11-01 17:52:00,54.2,39.7,30.14,NNE,32,1.0,2.0,58,0.00,,,0.00,Wunderground v.1.15,2013-11-02 00:52:00,
2013-11-01 17:58:00,53.6,39.6,30.14,NNE,31,2.0,3.0,59,0.00,,,0.00,Wunderground v.1.15,2013-11-02 00:58:00,
2013-11-01 18:03:00,53.0,39.9,30.14,NNE,31,2.0,2.0,61,0.00,,,0.00,Wunderground v.1.15,2013-11-02 01:03:00,
2013-11-01 18:09:00,52.3,39.7,30.14,NNE,31,1.0,2.0,62,0.00,,,0.00,Wunderground v.1.15,2013-11-02 01:09:00,
2013-11-01 18:15:00,51.8,39.6,30.14,NNE,30,1.0,2.0,63,0.00,,,0.00,Wunderground v.1.15,2013-11-02 01:15:00,
2013-11-01 18:21:00,51.3,39.5,30.14,NNE,31,2.0,2.0,64,0.00,,,0.00,Wunderground v.1.15,2013-11-02 01:21:00,
2013-11-01 18:27:00,51.0,39.6,30.14,NNE,30,2.0,2.0,65,0.00,,,0.00,Wunderground v.1.15,2013-11-02 01:27:00,
2013-11-01 18:33:00,50.8,39.8,30.14,NNE,30,1.0,1.0,66,0.00,,,0.00,Wunderground v.1.15,2013-11-02 01:33:00,
2013-11-01 18:38:00,50.9,39.9,30.14,NNE,31,0.0,1.0,66,0.00,,,0.00,Wunderground v.1.15,2013-11-02 01:38:00,
2013-11-01 18:44:00,50.6,39.7,30.14,NNE,32,1.0,3.0,66,0.00,,,0.00,Wunderground v.1.15,2013-11-02 01:44:00,
2013-11-01 18:50:00,50.3,39.8,30.14,NE,35,3.0,3.0,67,0.00,,,0.00,Wunderground v.1.15,2013-11-02 01:50:00,
2013-11-01 18:56:00,49.8,39.7,30.14,NE,34,2.0,3.0,68,0.00,,,0.00,Wunderground v.1.15,2013-11-02 01:56:00,
2013-11-01 19:02:00,49.7,39.9,30.14,NE,34,0.0,0.0,69,0.00,,,0.00,Wunderground v.1.15,2013-11-02 02:02:00,
2013-11-01 19:07:00,49.8,40.0,30.14,NE,34,0.0,0.0,69,0.00,,,0.00,Wunderground v.1.15,2013-11-02 02:07:00,
2013-11-01 19:13:00,49.7,39.9,30.14,NE,35,0.0,0.0,69,0.00,,,0.00,Wunderground v.1.15,2013-11-02 02:13:00,
2013-11-01 19:19:00,49.5,39.7,30.14,NE,35,0.0,0.0,69,0.00,,,0.00,Wunderground v.1.15,2013-11-02 02:19:00,
2013-11-01 19:25:00,49.1,39.7,30.14,NE,35,0.0,1.0,70,0.00,,,0.00,Wunderground v.1.15,2013-11-02 02:25:00,
2013-11-01 19:31:00,49.0,40.0,30.14,NE,34,0.0,0.0,71,0.00,,,0.00,Wunderground v.1.15,2013-11-02 02:31:00,
2013-11-01 19:37:00,48.7,39.7,30.14,NE,34,0.0,0.0,71,0.00,,,0.00,Wunderground v.1.15,2013-11-02 02:37:00,
2013-11-01 19:43:00,48.0,39.4,30.14,NE,34,0.0,0.0,72,0.00,,,0.00,Wunderground v.1.15,2013-11-02 02:43:00,
2013-11-01 19:49:00,47.5,40.0,30.14,SSW,209,0.0,0.0,75,0.00,,,0.00,Wunderground v.1.15,2013-11-02 02:49:00,
2013-11-01 19:54:00,46.7,39.2,30.14,WSW,243,0.0,0.0,75,0.00,,,0.00,Wunderground v.1.15,2013-11-02 02:54:00,
2013-11-01 20:01:00,46.0,39.2,30.14,WSW,242,0.0,0.0,77,0.00,,,0.00,Wunderground v.1.15,2013-11-02 03:01:00,
2013-11-01 20:06:00,45.5,38.7,30.14,WSW,254,0.0,0.0,77,0.00,,,0.00,Wunderground v.1.15,2013-11-02 03:06:00,
2013-11-01 20:12:00,45.2,39.1,30.14,WSW,245,0.0,0.0,79,0.00,,,0.00,Wunderground v.1.15,2013-11-02 03:12:00,
2013-11-01 20:18:00,45.2,39.1,30.13,WSW,258,0.0,0.0,79,0.00,,,0.00,Wunderground v.1.15,2013-11-02 03:18:00,
2013-11-01 20:23:00,45.4,39.3,30.13,WSW,257,0.0,0.0,79,0.00,,,0.00,Wunderground v.1.15,2013-11-02 03:23:00,
2013-11-01 20:29:00,45.7,39.6,30.13,WSW,256,0.0,0.0,79,0.00,,,0.00,Wunderground v.1.15,2013-11-02 03:29:00,
2013-11-01 20:35:00,45.3,38.8,30.13,West,264,0.0,0.0,78,0.00,,,0.00,Wunderground v.1.15,2013-11-02 03:35:00,
2013-11-01 20:41:00,44.8,39.0,30.13,West,264,0.0,0.0,80,0.00,,,0.00,Wunderground v.1.15,2013-11-02 03:41:00,
2013-11-01 20:47:00,45.7,39.9,30.13,West,264,0.0,0.0,80,0.00,,,0.00,Wunderground v.1.15,2013-11-02 03:47:00,
2013-11-01 20:53:00,46.1,39.6,30.13,West,264,0.0,0.0,78,0.00,,,0.00,Wunderground v.1.15,2013-11-02 03:53:00,
2013-11-01 20:58:00,46.4,39.9,30.13,West,263,0.0,0.0,78,0.00,,,0.00,Wunderground v.1.15,2013-11-02 03:58:00,
2013-11-01 21:01:00,46.5,39.7,30.12,West,263,0.0,0.0,77,0.00,,,0.00,Wunderground v.1.15,2013-11-02 04:01:00,
2013-11-01 21:02:00,46.5,39.7,30.12,West,264,0.0,0.0,77,0.00,,,0.00,Wunderground v.1.15,2013-11-02 04:02:00,
2013-11-01 21:04:00,46.4,39.6,30.12,West,264,0.0,0.0,77,0.00,,,0.00,Wunderground v.1.15,2013-11-02 04:04:00,
2013-11-01 21:05:00,46.4,39.6,30.12,West,263,0.0,0.0,77,0.00,,,0.00,Wunderground v.1.15,2013-11-02 04:05:00,
2013-11-01 21:07:00,46.4,39.6,30.12,West,263,0.0,0.0,77,0.00,,,0.00,Wunderground v.1.15,2013-11-02 04:07:00,
2013-11-01 21:13:00,46.4,39.6,30.12,West,264,0.0,0.0,77,0.00,,,0.00,Wunderground v.1.15,2013-11-02 04:13:00,
2013-11-01 21:19:00,46.4,39.6,30.11,West,263,0.0,0.0,77,0.00,,,0.00,Wunderground v.1.15,2013-11-02 04:19:00,
2013-11-01 21:25:00,46.2,39.4,30.11,West,264,0.0,0.0,77,0.00,,,0.00,Wunderground v.1.15,2013-11-02 04:25:00,
2013-11-01 21:31:00,45.7,39.2,30.12,West,264,0.0,1.0,78,0.00,,,0.00,Wunderground v.1.15,2013-11-02 04:31:00,
2013-11-01 21:36:00,45.5,39.0,30.12,West,263,0.0,1.0,78,0.00,,,0.00,Wunderground v.1.15,2013-11-02 04:36:00,
2013-11-01 21:42:00,44.9,38.8,30.12,West,264,0.0,0.0,79,0.00,,,0.00,Wunderground v.1.15,2013-11-02 04:42:00,
2013-11-01 21:48:00,44.6,38.8,30.12,West,264,0.0,0.0,80,0.00,,,0.00,Wunderground v.1.15,2013-11-02 04:48:00,
2013-11-01 21:54:00,44.4,38.9,30.12,West,264,0.0,0.0,81,0.00,,,0.00,Wunderground v.1.15,2013-11-02 04:54:00,
2013-11-01 21:59:00,44.2,38.7,30.12,West,263,0.0,0.0,81,0.00,,,0.00,Wunderground v.1.15,2013-11-02 04:59:00,
2013-11-01 22:05:00,44.8,39.3,30.12,West,264,0.0,0.0,81,0.00,,,0.00,Wunderground v.1.15,2013-11-02 05:05:00,
2013-11-01 22:11:00,45.0,39.5,30.11,West,263,0.0,0.0,81,0.00,,,0.00,Wunderground v.1.15,2013-11-02 05:11:00,
2013-11-01 22:17:00,45.1,39.0,30.12,WSW,249,1.0,1.0,79,0.00,,,0.00,Wunderground v.1.15,2013-11-02 05:17:00,
2013-11-01 22:23:00,44.5,38.4,30.12,WSW,245,1.0,2.0,79,0.00,,,0.00,Wunderground v.1.15,2013-11-02 05:23:00,
2013-11-01 22:28:00,43.3,37.5,30.12,WSW,244,1.0,2.0,80,0.00,,,0.00,Wunderground v.1.15,2013-11-02 05:28:00,
2013-11-01 22:34:00,42.6,37.8,30.12,WSW,240,2.0,2.0,83,0.00,,,0.00,Wunderground v.1.15,2013-11-02 05:34:00,
2013-11-01 22:40:00,42.7,38.2,30.12,SW,230,2.0,2.0,84,0.00,,,0.00,Wunderground v.1.15,2013-11-02 05:40:00,
2013-11-01 22:45:00,42.4,37.6,30.12,SW,230,2.0,3.0,83,0.00,,,0.00,Wunderground v.1.15,2013-11-02 05:45:00,
2013-11-01 22:51:00,41.8,37.3,30.12,WSW,238,2.0,2.0,84,0.00,,,0.00,Wunderground v.1.15,2013-11-02 05:51:00,
2013-11-01 22:57:00,41.6,37.7,30.11,SW,229,2.0,2.0,86,0.00,,,0.00,Wunderground v.1.15,2013-11-02 05:57:00,
2013-11-01 23:03:00,41.7,38.1,30.11,SW,225,2.0,2.0,87,0.00,,,0.00,Wunderground v.1.15,2013-11-02 06:03:00,
2013-11-01 23:08:00,41.7,38.1,30.11,SW,229,2.0,2.0,87,0.00,,,0.00,Wunderground v.1.15,2013-11-02 06:08:00,
2013-11-01 23:14:00,41.5,37.9,30.11,SW,220,2.0,3.0,87,0.00,,,0.00,Wunderground v.1.15,2013-11-02 06:14:00,
2013-11-01 23:19:00,41.4,38.1,30.10,SW,227,3.0,3.0,88,0.00,,,0.00,Wunderground v.1.15,2013-11-02 06:19:00,
2013-11-01 23:25:00,41.3,38.0,30.11,SW,231,3.0,3.0,88,0.00,,,0.00,Wunderground v.1.15,2013-11-02 06:25:00,
2013-11-01 23:31:00,41.1,37.8,30.10,WSW,250,2.0,2.0,88,0.00,,,0.00,Wunderground v.1.15,2013-11-02 06:31:00,
2013-11-01 23:37:00,40.8,37.5,30.10,WSW,247,2.0,3.0,88,0.00,,,0.00,Wunderground v.1.15,2013-11-02 06:37:00,
2013-11-01 23:42:00,40.6,37.6,30.10,WSW,252,2.0,2.0,89,0.00,,,0.00,Wunderground v.1.15,2013-11-02 06:42:00,
2013-11-01 23:48:00,40.6,37.6,30.10,WSW,253,2.0,3.0,89,0.00,,,0.00,Wunderground v.1.15,2013-11-02 06:48:00,
2013-11-01 23:54:00,40.3,37.3,30.10,WSW,248,2.0,2.0,89,0.00,,,0.00,Wunderground v.1.15,2013-11-02 06:54:00,